This demonstration page uses our WeatherBlox Daily Observations layout. Learn more.

39.92423, -83.80882

Hourly Observations for May 1, 2015

Temp ( °F °C ) Dew Point ( °F °C ) Humidity (%) Winds ( mph kmh ) Pressure ( in mb ) Visibility ( mi km ) Precip ( " mm )
12:30 am 00:30 Cloudy 48 9 43 6 82 82 N 10 17 30.03 1017 7 11.26538 0 0
12:56 am 00:56 Cloudy 49 9.4 43 6.1 80 80 NNW 6 9 29.99 1016 7 11.26538 0 0
1:56 am 01:56 Cloudy 49 9.4 43 6.1 80 80 N 8 13 29.99 1016 7 11.26538 0 0
2:56 am 02:56 Cloudy 49 9.4 42 5.5 77 77 NNW 8 13 29.99 1016 7 11.26538 0 0
3:56 am 03:56 Cloudy 48 8.8 43 6.1 83 83 NW 7 11 29.99 1016 7 11.26538 0 0
4:56 am 04:56 Mostly Cloudy 47 8.3 43 6.1 86 86 NW 7 11 30 1016 7 11.26538 0 0
5:56 am 05:56 Partly Cloudy 46 7.7 43 6.1 90 90 NW 6 9 30.01 1016 7 11.26538 0 0
6:56 am 06:56 Sunny with Mist and Fog 44 6.6 42 5.5 93 93 NW 6 9 30.03 1017 5 8.0467 0 0
7:56 am 07:56 Sunny with Mist and Fog 47 8.3 43 6.1 86 86 NNW 7 11 30.04 1017 6 9.65604 0 0
8:56 am 08:56 Hazy 53 11.6 44 6.6 72 72 NNW 13 20 30.06 1018 6 9.65604 0 0
9:56 am 09:56 Hazy 58 14.4 46 7.7 64 64 N 12 19 30.07 1018 6 9.65604 0 0
10:56 am 10:56 Hazy 62 16.6 47 8.3 58 58 N 8 13 30.07 1018 6 9.65604 0 0
11:56 am 11:56 Hazy 67 19.4 46 7.7 47 47 N 7 11 30.07 1018 6 9.65604 0 0
12:56 pm 12:56 Hazy 70 21.1 46 7.7 42 42 NNW 9 15 30.06 1018 6 9.65604 0 0
1:56 pm 13:56 Mostly Cloudy with Haze 69 20.5 45 7.2 42 42 N 8 13 30.06 1018 6 9.65604 0 0
2:56 pm 14:56 Mostly Cloudy with Haze 69 20.5 44 6.6 41 41 N 9 15 30.06 1018 6 9.65604 0 0
3:56 pm 15:56 Partly Cloudy 71 21.6 43 6.1 37 37 NNW 13 20 30.05 1018 7 11.26538 0 0
4:56 pm 16:56 Hazy 73 22.7 43 6.1 34 34 N 10 17 30.04 1017 6 9.65604 0 0
5:56 pm 17:56 Hazy 69 20.5 40 4.4 35 35 NNW 8 13 30.04 1017 6 9.65604 0 0
6:56 pm 18:56 Hazy 69 20.5 40 4.4 35 35 N 9 15 30.04 1017 6 9.65604 0 0
7:56 pm 19:56 Hazy 66 18.8 42 5.5 42 42 NNW 6 9 30.05 1018 6 9.65604 0 0
8:56 pm 20:56 Clear 62 16.6 41 5 46 46 WNW 5 7 30.06 1018 8 12.87472 0 0
9:56 pm 21:56 Clear 55 12.7 41 5 60 60 E 7 11 30.08 1019 7 11.26538 0 0
10:56 pm 22:56 Clear 52 11.1 41 5 66 66 E 3 6 30.09 1019 7 11.26538 0 0
11:56 pm 23:56 Clear 50 10 43 6.1 77 77 Calm 30.09 1019 7 11.26538 0 0

Powered by AerisWeather